| time (UTC) | temp C | wind direction | speed KPH | gust KPH | rain 1hr cm | rain 24hr cm | rain mn cm | humidity % | barometer mb |
| 20260507025232 | 5 | 328 | 0.0 | 0.0 | 0.00 | 0.00 | 0.00 | 89 | 1013.0 |
| 20260507024731 | 5 | 328 | 0.0 | 0.0 | 0.00 | 0.00 | 0.00 | 89 | 1013.0 |
| 20260507024234 | 5 | 328 | 0.0 | 0.0 | 0.00 | 0.00 | 0.00 | 89 | 1012.9 |
| 20260507023731 | 5 | 328 | 0.0 | 4.8 | 0.00 | 0.00 | 0.00 | 89 | 1013.0 |
| 20260507023225 | 5 | 328 | 0.0 | 4.8 | 0.00 | 0.00 | 0.00 | 89 | 1012.9 |
| 20260507022724 | 5 | 328 | 1.6 | 4.8 | 0.00 | 0.00 | 0.00 | 89 | 1012.9 |
| 20260507022221 | 5 | 304 | 1.6 | 4.8 | 0.00 | 0.00 | 0.00 | 89 | 1012.7 |
| 20260507021713 | 5 | 299 | 0.0 | 3.2 | 0.00 | 0.00 | 0.00 | 89 | 1012.7 |
| 20260507021215 | 5 | 276 | 0.0 | 0.0 | 0.00 | 0.00 | 0.00 | 89 | 1012.7 |
| 20260507020705 | 5 | 276 | 0.0 | 1.6 | 0.00 | 0.00 | 0.00 | 89 | 1012.6 |
| 20260507020204 | 5 | 276 | 0.0 | 3.2 | 0.00 | 0.00 | 0.00 | 89 | 1012.7 |
| 20260507015705 | 5 | 276 | 0.0 | 3.2 | 0.00 | 0.00 | 0.00 | 89 | 1012.8 |
| 20260507015216 | 5 | 276 | 0.0 | 4.8 | 0.00 | 0.00 | 0.00 | 89 | 1012.6 |
| 20260507014703 | 5 | 294 | 1.6 | 4.8 | 0.00 | 0.00 | 0.00 | 89 | 1012.7 |
| 20260507014202 | 5 | 320 | 1.6 | 4.8 | 0.00 | 0.00 | 0.00 | 89 | 1012.6 |
| 20260507013702 | 5 | 301 | 1.6 | 4.8 | 0.00 | 0.00 | 0.00 | 89 | 1012.6 |
| 20260507013202 | 5 | 286 | 1.6 | 4.8 | 0.00 | 0.00 | 0.00 | 89 | 1012.6 |
| 20260507012702 | 5 | 300 | 1.6 | 4.8 | 0.00 | 0.00 | 0.00 | 89 | 1012.6 |
| 20260507012202 | 6 | 308 | 0.0 | 4.8 | 0.00 | 0.00 | 0.00 | 89 | 1012.5 |
| 20260507011702 | 6 | 312 | 1.6 | 3.2 | 0.00 | 0.00 | 0.00 | 88 | 1012.4 |
| 20260507011203 | 6 | 314 | 0.0 | 4.8 | 0.00 | 0.00 | 0.00 | 88 | 1012.4 |
| 20260507010702 | 6 | 313 | 0.0 | 4.8 | 0.00 | 0.00 | 0.00 | 88 | 1012.4 |
| 20260507010203 | 6 | 326 | 1.6 | 6.4 | 0.00 | 0.00 | 0.00 | 89 | 1012.4 |
| 20260507005703 | 6 | 327 | 1.6 | 8.0 | 0.00 | 0.00 | 0.00 | 88 | 1012.4 |
| 20260507005201 | 6 | 308 | 3.2 | 8.0 | 0.00 | 0.00 | 0.00 | 88 | 1012.4 |
| 20260507004701 | 6 | 314 | 0.0 | 4.8 | 0.00 | 0.00 | 0.00 | 88 | 1012.4 |
| 20260507004202 | 6 | 309 | 1.6 | 4.8 | 0.00 | 0.00 | 0.00 | 88 | 1012.4 |
| 20260507003702 | 6 | 329 | 1.6 | 6.4 | 0.00 | 0.00 | 0.00 | 88 | 1012.3 |
| 20260507003202 | 6 | 275 | 1.6 | 6.4 | 0.00 | 0.00 | 0.00 | 88 | 1012.4 |
| 20260507002705 | 6 | 308 | 1.6 | 9.7 | 0.00 | 0.00 | 0.00 | 88 | 1012.3 |
| 20260507002202 | 6 | 321 | 1.6 | 9.7 | 0.00 | 0.00 | 0.00 | 88 | 1012.4 |
| 20260507001702 | 6 | 341 | 3.2 | 9.7 | 0.00 | 0.00 | 0.00 | 88 | 1012.2 |
| 20260507001202 | 6 | 321 | 1.6 | 9.7 | 0.00 | 0.00 | 0.00 | 88 | 1012.2 |
| 20260507000702 | 6 | 331 | 1.6 | 6.4 | 0.00 | 0.00 | 0.00 | 88 | 1012.2 |
| 20260507000204 | 6 | 317 | 1.6 | 6.4 | 0.00 | 0.00 | 0.00 | 87 | 1012.3 |
| 20260506235703 | 6 | 327 | 1.6 | 6.4 | 0.00 | 0.00 | 0.00 | 87 | 1012.4 |
| 20260506235202 | 6 | 336 | 3.2 | 6.4 | 0.00 | 0.00 | 0.00 | 87 | 1012.4 |
| 20260506234702 | 6 | 313 | 1.6 | 6.4 | 0.00 | 0.00 | 0.00 | 87 | 1012.4 |
| 20260506234202 | 6 | 312 | 1.6 | 6.4 | 0.00 | 0.00 | 0.00 | 87 | 1012.3 |
| 20260506233702 | 6 | 289 | 3.2 | 6.4 | 0.00 | 0.00 | 0.00 | 86 | 1012.4 |
| 20260506233201 | 7 | 279 | 1.6 | 6.4 | 0.00 | 0.00 | 0.00 | 86 | 1012.3 |
| 20260506232702 | 7 | 327 | 3.2 | 6.4 | 0.00 | 0.00 | 0.00 | 86 | 1012.2 |
| 20260506232200 | 7 | 351 | 1.6 | 6.4 | 0.00 | 0.00 | 0.00 | 86 | 1012.3 |
| 20260506231659 | 7 | 323 | 1.6 | 6.4 | 0.00 | 0.00 | 0.00 | 86 | 1012.2 |
| 20260506231157 | 7 | 319 | 1.6 | 9.7 | 0.00 | 0.00 | 0.00 | 86 | 1012.2 |
| 20260506230656 | 7 | 303 | 3.2 | 9.7 | 0.00 | 0.00 | 0.00 | 86 | 1012.2 |
| 20260506230154 | 7 | 323 | 3.2 | 9.7 | 0.00 | 0.00 | 0.00 | 85 | 1012.3 |
| 20260506225651 | 7 | 330 | 3.2 | 9.7 | 0.00 | 0.00 | 0.00 | 85 | 1012.2 |
| 20260506225150 | 7 | 349 | 3.2 | 6.4 | 0.00 | 0.00 | 0.00 | 85 | 1012.2 |
| 20260506224649 | 7 | 322 | 1.6 | 9.7 | 0.00 | 0.00 | 0.00 | 84 | 1012.1 |
| 20260506224145 | 7 | 323 | 1.6 | 9.7 | 0.00 | 0.00 | 0.00 | 84 | 1012.1 |
| 20260506223646 | 7 | 12 | 3.2 | 8.0 | 0.00 | 0.00 | 0.00 | 84 | 1012.2 |
| 20260506223143 | 7 | 344 | 1.6 | 6.4 | 0.00 | 0.00 | 0.00 | 84 | 1012.1 |
| 20260506222641 | 8 | 326 | 1.6 | 4.8 | 0.00 | 0.00 | 0.00 | 83 | 1012.2 |
| 20260506222141 | 8 | 345 | 3.2 | 6.4 | 0.00 | 0.00 | 0.00 | 83 | 1012.1 |
| 20260506221639 | 8 | 344 | 1.6 | 6.4 | 0.00 | 0.00 | 0.00 | 83 | 1012.1 |
| 20260506221138 | 8 | 351 | 3.2 | 6.4 | 0.00 | 0.00 | 0.00 | 83 | 1012.0 |
| 20260506220636 | 8 | 345 | 1.6 | 4.8 | 0.00 | 0.00 | 0.00 | 82 | 1012.1 |
| 20260506220135 | 8 | 315 | 1.6 | 6.4 | 0.00 | 0.00 | 0.00 | 82 | 1011.9 |
| 20260506215633 | 8 | 355 | 1.6 | 6.4 | 0.00 | 0.00 | 0.00 | 82 | 1011.9 |
| 20260506215132 | 8 | 312 | 1.6 | 4.8 | 0.00 | 0.00 | 0.00 | 82 | 1011.9 |
| 20260506214631 | 8 | 318 | 1.6 | 4.8 | 0.00 | 0.00 | 0.00 | 82 | 1011.8 |
| 20260506214131 | 8 | 356 | 3.2 | 6.4 | 0.00 | 0.00 | 0.00 | 82 | 1011.8 |
| 20260506213631 | 9 | 348 | 0.0 | 12.9 | 0.00 | 0.00 | 0.00 | 82 | 1011.7 |
| 20260506213131 | 9 | 17 | 4.8 | 12.9 | 0.00 | 0.00 | 0.00 | 81 | 1011.6 |
| 20260506212631 | 9 | 347 | 6.4 | 14.5 | 0.00 | 0.00 | 0.00 | 81 | 1011.5 |
| 20260506212131 | 9 | 23 | 6.4 | 14.5 | 0.00 | 0.00 | 0.00 | 81 | 1011.5 |
| 20260506211631 | 9 | 307 | 6.4 | 14.5 | 0.00 | 0.00 | 0.00 | 81 | 1011.3 |
| 20260506211131 | 9 | 350 | 8.0 | 14.5 | 0.00 | 0.00 | 0.00 | 81 | 1011.2 |
| 20260506210631 | 9 | 16 | 6.4 | 16.1 | 0.00 | 0.00 | 0.00 | 80 | 1011.3 |
| 20260506210131 | 10 | 337 | 8.0 | 19.3 | 0.00 | 0.00 | 0.00 | 81 | 1011.3 |
| 20260506205631 | 10 | 332 | 9.7 | 19.3 | 0.00 | 0.00 | 0.00 | 81 | 1011.2 |
| 20260506205130 | 10 | 350 | 8.0 | 16.1 | 0.00 | 0.00 | 0.00 | 81 | 1011.3 |
| 20260506204631 | 10 | 18 | 9.7 | 16.1 | 0.00 | 0.00 | 0.00 | 81 | 1011.2 |
| 20260506204132 | 10 | 42 | 8.0 | 14.5 | 0.00 | 0.00 | 0.00 | 81 | 1011.3 |
| 20260506203631 | 10 | 344 | 6.4 | 14.5 | 0.00 | 0.00 | 0.00 | 81 | 1011.2 |
| 20260506203130 | 10 | 353 | 4.8 | 11.3 | 0.00 | 0.00 | 0.00 | 82 | 1011.2 |
| 20260506202629 | 10 | 331 | 3.2 | 9.7 | 0.00 | 0.00 | 0.00 | 82 | 1011.2 |
| 20260506202129 | 10 | 314 | 3.2 | 9.7 | 0.00 | 0.00 | 0.00 | 81 | 1011.1 |
| 20260506201627 | 10 | 343 | 3.2 | 6.4 | 0.00 | 0.00 | 0.00 | 81 | 1011.1 |
| 20260506201127 | 10 | 314 | 1.6 | 4.8 | 0.00 | 0.00 | 0.00 | 81 | 1011.0 |
| 20260506200627 | 10 | 294 | 0.0 | 3.2 | 0.00 | 0.00 | 0.00 | 80 | 1011.1 |
| 20260506200121 | 10 | 314 | 0.0 | 3.2 | 0.00 | 0.00 | 0.00 | 80 | 1011.0 |
| 20260506195621 | 10 | 314 | 1.6 | 3.2 | 0.00 | 0.00 | 0.00 | 80 | 1011.0 |
| 20260506195118 | 10 | 314 | 0.0 | 3.2 | 0.00 | 0.00 | 0.00 | 79 | 1011.0 |
| 20260506194618 | 10 | 314 | 0.0 | 3.2 | 0.00 | 0.00 | 0.00 | 79 | 1010.9 |
| 20260506194116 | 10 | 314 | 0.0 | 1.6 | 0.00 | 0.00 | 0.00 | 79 | 1010.9 |
| 20260506193614 | 10 | 314 | 0.0 | 1.6 | 0.00 | 0.00 | 0.00 | 79 | 1010.8 |
| 20260506193108 | 10 | 314 | 0.0 | 1.6 | 0.00 | 0.00 | 0.00 | 78 | 1010.8 |
| 20260506192608 | 10 | 314 | 0.0 | 0.0 | 0.00 | 0.00 | 0.00 | 78 | 1010.7 |
| 20260506192105 | 11 | 314 | 0.0 | 0.0 | 0.00 | 0.00 | 0.00 | 77 | 1010.6 |
| 20260506191603 | 11 | 314 | 0.0 | 0.0 | 0.00 | 0.00 | 0.00 | 77 | 1010.6 |
| 20260506191103 | 11 | 314 | 0.0 | 0.0 | 0.00 | 0.00 | 0.00 | 77 | 1010.5 |
| 20260506190602 | 11 | 314 | 0.0 | 0.0 | 0.00 | 0.00 | 0.00 | 77 | 1010.4 |
| 20260506185602 | 11 | 314 | 0.0 | 0.0 | 0.00 | 0.00 | 0.00 | 77 | 1010.3 |
| 20260506185102 | 11 | 314 | 0.0 | 0.0 | 0.00 | 0.00 | 0.00 | 77 | 1010.3 |
| 20260506184602 | 11 | 314 | 0.0 | 0.0 | 0.00 | 0.00 | 0.00 | 77 | 1010.4 |
| 20260506184103 | 11 | 314 | 0.0 | 0.0 | 0.00 | 0.00 | 0.00 | 77 | 1010.4 |
| 20260506183602 | 11 | 314 | 0.0 | 1.6 | 0.00 | 0.00 | 0.00 | 76 | 1010.3 |
| 20260506183104 | 11 | 314 | 0.0 | 1.6 | 0.00 | 0.00 | 0.00 | 76 | 1010.3 |
| 20260506182603 | 11 | 314 | 0.0 | 3.2 | 0.00 | 0.00 | 0.00 | 76 | 1010.2 |
| 20260506182102 | 11 | 314 | 0.0 | 3.2 | 0.00 | 0.00 | 0.00 | 76 | 1010.2 |
| 20260506181601 | 11 | 314 | 0.0 | 3.2 | 0.00 | 0.00 | 0.00 | 75 | 1010.1 |
| 20260506181102 | 11 | 314 | 0.0 | 3.2 | 0.00 | 0.00 | 0.00 | 75 | 1010.0 |
| 20260506180559 | 11 | 335 | 0.0 | 4.8 | 0.00 | 0.00 | 0.00 | 74 | 1010.0 |
| 20260506180053 | 11 | 312 | 1.6 | 4.8 | 0.00 | 0.00 | 0.00 | 74 | 1009.9 |
| 20260506175551 | 11 | 343 | 1.6 | 4.8 | 0.00 | 0.00 | 0.00 | 73 | 1009.9 |
| 20260506175046 | 11 | 335 | 1.6 | 4.8 | 0.00 | 0.00 | 0.00 | 73 | 1009.7 |
| 20260506174545 | 11 | 349 | 1.6 | 4.8 | 0.00 | 0.00 | 0.00 | 73 | 1009.7 |
| 20260506174042 | 11 | 347 | 3.2 | 4.8 | 0.00 | 0.00 | 0.00 | 73 | 1009.6 |
| 20260506173540 | 11 | 3 | 0.0 | 4.8 | 0.00 | 0.00 | 0.00 | 72 | 1009.6 |
| 20260506173038 | 11 | 349 | 3.2 | 4.8 | 0.00 | 0.00 | 0.00 | 72 | 1009.5 |
| 20260506172535 | 11 | 17 | 1.6 | 6.4 | 0.00 | 0.00 | 0.00 | 72 | 1009.4 |
| 20260506172032 | 11 | 349 | 3.2 | 6.4 | 0.00 | 0.00 | 0.00 | 72 | 1009.5 |
| 20260506171531 | 11 | 348 | 3.2 | 6.4 | 0.00 | 0.00 | 0.00 | 72 | 1009.5 |
| 20260506171031 | 11 | 359 | 3.2 | 6.4 | 0.00 | 0.00 | 0.00 | 72 | 1009.5 |
| 20260506170531 | 11 | 2 | 3.2 | 8.0 | 0.00 | 0.00 | 0.00 | 72 | 1009.4 |
| 20260506170032 | 11 | 24 | 3.2 | 8.0 | 0.00 | 0.00 | 0.00 | 71 | 1009.3 |
| 20260506165529 | 11 | 341 | 3.2 | 11.3 | 0.00 | 0.00 | 0.00 | 71 | 1009.3 |
| 20260506165029 | 11 | 55 | 3.2 | 11.3 | 0.00 | 0.00 | 0.00 | 70 | 1009.3 |
| 20260506164523 | 11 | 26 | 1.6 | 8.0 | 0.00 | 0.00 | 0.00 | 70 | 1009.4 |
| 20260506164021 | 11 | 10 | 1.6 | 8.0 | 0.00 | 0.00 | 0.00 | 70 | 1009.4 |
| 20260506163523 | 11 | 0 | 1.6 | 9.7 | 0.00 | 0.00 | 0.00 | 70 | 1009.5 |
| 20260506163020 | 11 | 354 | 1.6 | 14.5 | 0.00 | 0.00 | 0.00 | 70 | 1009.5 |
| 20260506162518 | 11 | 79 | 3.2 | 14.5 | 0.00 | 0.00 | 0.00 | 70 | 1009.4 |
| 20260506162017 | 11 | 347 | 3.2 | 11.3 | 0.00 | 0.00 | 0.00 | 70 | 1009.3 |
| 20260506161516 | 11 | 4 | 3.2 | 8.0 | 0.00 | 0.00 | 0.00 | 70 | 1009.5 |
| 20260506161014 | 11 | 2 | 3.2 | 11.3 | 0.00 | 0.00 | 0.00 | 70 | 1009.5 |
| 20260506160514 | 11 | 58 | 3.2 | 12.9 | 0.00 | 0.00 | 0.00 | 70 | 1009.3 |
| 20260506160016 | 11 | 27 | 6.4 | 12.9 | 0.00 | 0.00 | 0.00 | 70 | 1009.4 |
| 20260506155512 | 11 | 41 | 4.8 | 9.7 | 0.00 | 0.00 | 0.00 | 70 | 1009.4 |
| 20260506155009 | 11 | 42 | 4.8 | 11.3 | 0.00 | 0.00 | 0.00 | 70 | 1009.4 |
| 20260506154510 | 11 | 28 | 4.8 | 11.3 | 0.00 | 0.00 | 0.00 | 71 | 1009.3 |
| 20260506154007 | 11 | 2 | 1.6 | 8.0 | 0.00 | 0.00 | 0.00 | 71 | 1009.5 |
| 20260506153507 | 11 | 41 | 3.2 | 8.0 | 0.00 | 0.00 | 0.00 | 70 | 1009.3 |
| 20260506153005 | 11 | 39 | 1.6 | 9.7 | 0.00 | 0.00 | 0.00 | 70 | 1009.3 |
| 20260506152504 | 11 | 50 | 6.4 | 9.7 | 0.00 | 0.00 | 0.00 | 70 | 1009.3 |
| 20260506152003 | 11 | 81 | 3.2 | 8.0 | 0.00 | 0.00 | 0.00 | 71 | 1009.2 |
| 20260506151504 | 11 | 20 | 1.6 | 12.9 | 0.00 | 0.00 | 0.00 | 70 | 1009.2 |
| 20260506150957 | 11 | 78 | 4.8 | 14.5 | 0.00 | 0.00 | 0.00 | 70 | 1009.2 |
| 20260506150457 | 11 | 323 | 6.4 | 14.5 | 0.00 | 0.00 | 0.00 | 69 | 1009.1 |
| 20260506145953 | 11 | 347 | 3.2 | 11.3 | 0.00 | 0.00 | 0.00 | 70 | 1009.1 |
| 20260506145450 | 11 | 2 | 4.8 | 11.3 | 0.00 | 0.00 | 0.00 | 70 | 1009.1 |
| 20260506144951 | 11 | 25 | 4.8 | 16.1 | 0.00 | 0.00 | 0.00 | 70 | 1009.2 |
| 20260506144447 | 11 | 49 | 8.0 | 16.1 | 0.00 | 0.00 | 0.00 | 70 | 1009.1 |
| 20260506143945 | 11 | 34 | 4.8 | 11.3 | 0.00 | 0.00 | 0.00 | 71 | 1009.1 |
| 20260506143442 | 11 | 64 | 4.8 | 11.3 | 0.00 | 0.00 | 0.00 | 71 | 1009.2 |
| 20260506142941 | 11 | 26 | 4.8 | 11.3 | 0.00 | 0.00 | 0.00 | 70 | 1009.1 |
| 20260506142440 | 11 | 345 | 4.8 | 16.1 | 0.00 | 0.00 | 0.00 | 70 | 1009.1 |
| 20260506141937 | 11 | 69 | 4.8 | 16.1 | 0.00 | 0.00 | 0.00 | 70 | 1009.1 |
| 20260506141436 | 11 | 52 | 3.2 | 16.1 | 0.00 | 0.00 | 0.00 | 70 | 1009.1 |
| 20260506140933 | 11 | 11 | 6.4 | 20.9 | 0.00 | 0.00 | 0.00 | 69 | 1009.0 |
| 20260506140433 | 11 | 8 | 9.7 | 29.0 | 0.00 | 0.00 | 0.00 | 69 | 1009.0 |
| 20260506135932 | 11 | 8 | 9.7 | 29.0 | 0.00 | 0.00 | 0.00 | 69 | 1008.9 |
| 20260506135435 | 11 | 23 | 11.3 | 22.5 | 0.00 | 0.00 | 0.00 | 71 | 1009.1 |
| 20260506134931 | 11 | 357 | 3.2 | 20.9 | 0.00 | 0.00 | 0.00 | 72 | 1009.0 |
| 20260506134430 | 11 | 6 | 9.7 | 29.0 | 0.00 | 0.00 | 0.00 | 72 | 1009.0 |
| 20260506133927 | 11 | 345 | 16.1 | 29.0 | 0.00 | 0.00 | 0.00 | 72 | 1009.0 |
| 20260506133426 | 11 | 34 | 12.9 | 29.0 | 0.00 | 0.00 | 0.00 | 73 | 1009.0 |
| 20260506132925 | 11 | 16 | 12.9 | 29.0 | 0.00 | 0.00 | 0.00 | 74 | 1009.0 |
| 20260506132423 | 11 | 40 | 9.7 | 27.4 | 0.00 | 0.00 | 0.00 | 75 | 1008.8 |
| 20260506131920 | 11 | 6 | 14.5 | 29.0 | 0.00 | 0.00 | 0.00 | 75 | 1008.8 |
| 20260506131418 | 11 | 12 | 16.1 | 29.0 | 0.00 | 0.00 | 0.00 | 75 | 1008.9 |
| 20260506130919 | 11 | 64 | 16.1 | 29.0 | 0.00 | 0.00 | 0.00 | 75 | 1009.0 |
| 20260506130415 | 11 | 74 | 12.9 | 30.6 | 0.00 | 0.00 | 0.00 | 76 | 1008.9 |
| 20260506125916 | 11 | 43 | 17.7 | 30.6 | 0.00 | 0.00 | 0.00 | 75 | 1008.8 |
| 20260506125413 | 11 | 66 | 14.5 | 27.4 | 0.00 | 0.00 | 0.00 | 75 | 1008.8 |
| 20260506124911 | 11 | 350 | 12.9 | 29.0 | 0.00 | 0.00 | 0.00 | 75 | 1008.9 |
| 20260506124407 | 11 | 22 | 16.1 | 29.0 | 0.00 | 0.00 | 0.00 | 75 | 1008.8 |
| 20260506123906 | 11 | 25 | 16.1 | 25.7 | 0.00 | 0.00 | 0.00 | 74 | 1008.8 |
| 20260506123404 | 11 | 4 | 12.9 | 25.7 | 0.00 | 0.00 | 0.00 | 74 | 1008.8 |
| 20260506122904 | 11 | 15 | 9.7 | 25.7 | 0.00 | 0.00 | 0.00 | 74 | 1008.7 |
| 20260506122402 | 11 | 6 | 17.7 | 25.7 | 0.00 | 0.00 | 0.00 | 72 | 1008.7 |
| 20260506121903 | 11 | 37 | 14.5 | 25.7 | 0.00 | 0.00 | 0.00 | 72 | 1008.6 |
| 20260506121403 | 11 | 357 | 11.3 | 24.1 | 0.00 | 0.00 | 0.00 | 72 | 1008.6 |
| 20260506120902 | 11 | 18 | 8.0 | 22.5 | 0.00 | 0.00 | 0.00 | 71 | 1008.5 |
| 20260506120357 | 11 | 35 | 9.7 | 25.7 | 0.00 | 0.00 | 0.00 | 70 | 1008.5 |
| 20260506115858 | 11 | 357 | 14.5 | 27.4 | 0.00 | 0.00 | 0.00 | 70 | 1008.4 |
| 20260506115357 | 11 | 343 | 14.5 | 27.4 | 0.00 | 0.00 | 0.00 | 70 | 1008.3 |
| 20260506114859 | 11 | 37 | 8.0 | 22.5 | 0.00 | 0.00 | 0.00 | 70 | 1008.3 |
| 20260506114357 | 11 | 0 | 12.9 | 30.6 | 0.00 | 0.00 | 0.00 | 70 | 1008.4 |
| 20260506113854 | 11 | 7 | 11.3 | 30.6 | 0.00 | 0.00 | 0.00 | 70 | 1008.5 |
| 20260506113352 | 11 | 1 | 12.9 | 27.4 | 0.00 | 0.00 | 0.00 | 69 | 1008.5 |
| 20260506112850 | 11 | 5 | 17.7 | 25.7 | 0.00 | 0.00 | 0.00 | 70 | 1008.5 |
| 20260506112346 | 11 | 358 | 14.5 | 20.9 | 0.00 | 0.00 | 0.00 | 72 | 1008.6 |
| 20260506111846 | 11 | 4 | 4.8 | 17.7 | 0.00 | 0.00 | 0.00 | 75 | 1008.5 |
| 20260506111344 | 11 | 356 | 8.0 | 17.7 | 0.00 | 0.00 | 0.00 | 74 | 1008.5 |
| 20260506110841 | 11 | 358 | 8.0 | 20.9 | 0.00 | 0.00 | 0.00 | 74 | 1008.5 |
| 20260506110339 | 11 | 20 | 14.5 | 20.9 | 0.00 | 0.00 | 0.00 | 72 | 1008.5 |
| 20260506105835 | 11 | 316 | 11.3 | 22.5 | 0.00 | 0.00 | 0.00 | 74 | 1008.6 |
| 20260506105334 | 11 | 349 | 11.3 | 25.7 | 0.00 | 0.00 | 0.00 | 73 | 1008.6 |
| 20260506104831 | 11 | 19 | 12.9 | 25.7 | 0.00 | 0.00 | 0.00 | 73 | 1008.6 |
| 20260506104332 | 11 | 7 | 14.5 | 24.1 | 0.00 | 0.00 | 0.00 | 73 | 1008.5 |
| 20260506103831 | 11 | 25 | 8.0 | 27.4 | 0.00 | 0.00 | 0.00 | 74 | 1008.5 |
| 20260506103332 | 11 | 26 | 16.1 | 27.4 | 0.00 | 0.00 | 0.00 | 73 | 1008.4 |
| 20260506102831 | 11 | 339 | 14.5 | 20.9 | 0.00 | 0.00 | 0.00 | 74 | 1008.3 |
| 20260506102332 | 11 | 4 | 9.7 | 25.7 | 0.00 | 0.00 | 0.00 | 75 | 1008.4 |
| 20260506101831 | 11 | 353 | 12.9 | 25.7 | 0.00 | 0.00 | 0.00 | 76 | 1008.4 |
| 20260506101332 | 11 | 337 | 9.7 | 20.9 | 0.00 | 0.00 | 0.00 | 77 | 1008.3 |
| 20260506100832 | 11 | 352 | 11.3 | 19.3 | 0.00 | 0.00 | 0.00 | 77 | 1008.3 |
| 20260506100332 | 11 | 20 | 9.7 | 27.4 | 0.00 | 0.00 | 0.00 | 76 | 1008.2 |
| 20260506095831 | 11 | 13 | 11.3 | 27.4 | 0.00 | 0.00 | 0.00 | 75 | 1008.2 |
| 20260506095332 | 11 | 356 | 8.0 | 24.1 | 0.00 | 0.00 | 0.00 | 76 | 1008.2 |
| 20260506094832 | 11 | 13 | 9.7 | 24.1 | 0.00 | 0.00 | 0.00 | 74 | 1008.2 |
| 20260506094331 | 11 | 2 | 14.5 | 22.5 | 0.00 | 0.00 | 0.00 | 74 | 1008.1 |
| 20260506093832 | 11 | 9 | 11.3 | 22.5 | 0.00 | 0.00 | 0.00 | 74 | 1008.2 |
| 20260506093331 | 11 | 12 | 9.7 | 22.5 | 0.00 | 0.00 | 0.00 | 74 | 1008.1 |
| 20260506092833 | 11 | 335 | 14.5 | 20.9 | 0.00 | 0.00 | 0.00 | 75 | 1008.0 |
| 20260506092333 | 11 | 2 | 9.7 | 20.9 | 0.00 | 0.00 | 0.00 | 76 | 1008.2 |
| 20260506091832 | 11 | 316 | 12.9 | 20.9 | 0.00 | 0.00 | 0.00 | 77 | 1008.1 |
| 20260506091331 | 11 | 7 | 9.7 | 20.9 | 0.00 | 0.00 | 0.00 | 76 | 1008.0 |
| 20260506090830 | 11 | 23 | 12.9 | 20.9 | 0.00 | 0.00 | 0.00 | 77 | 1008.1 |
| 20260506090331 | 10 | 19 | 11.3 | 19.3 | 0.00 | 0.00 | 0.00 | 76 | 1008.0 |
| 20260506085831 | 10 | 356 | 9.7 | 20.9 | 0.00 | 0.00 | 0.00 | 76 | 1007.9 |
| 20260506085331 | 10 | 0 | 9.7 | 20.9 | 0.00 | 0.00 | 0.00 | 77 | 1007.7 |
| 20260506084831 | 10 | 18 | 9.7 | 19.3 | 0.00 | 0.00 | 0.00 | 77 | 1007.6 |
| 20260506084332 | 10 | 10 | 6.4 | 20.9 | 0.00 | 0.00 | 0.00 | 76 | 1007.7 |
| 20260506083831 | 10 | 356 | 9.7 | 20.9 | 0.00 | 0.00 | 0.00 | 77 | 1007.6 |
| 20260506083332 | 10 | 4 | 11.3 | 19.3 | 0.00 | 0.00 | 0.00 | 77 | 1007.7 |
| 20260506082831 | 10 | 17 | 11.3 | 17.7 | 0.00 | 0.00 | 0.00 | 77 | 1007.6 |
| 20260506082331 | 10 | 8 | 8.0 | 17.7 | 0.00 | 0.00 | 0.00 | 78 | 1007.7 |
| 20260506081832 | 10 | 310 | 12.9 | 17.7 | 0.00 | 0.00 | 0.00 | 78 | 1007.7 |
| 20260506081331 | 10 | 7 | 11.3 | 17.7 | 0.00 | 0.00 | 0.00 | 79 | 1007.6 |
| 20260506080831 | 10 | 12 | 9.7 | 17.7 | 0.00 | 0.00 | 0.00 | 79 | 1007.6 |
| 20260506080331 | 10 | 3 | 6.4 | 17.7 | 0.00 | 0.00 | 0.00 | 79 | 1007.6 |
| 20260506073331 | 10 | 356 | 6.4 | 19.3 | 0.00 | 0.00 | 0.00 | 74 | 1007.5 |
| 20260506072831 | 10 | 10 | 8.0 | 19.3 | 0.00 | 0.00 | 0.00 | 73 | 1007.5 |
| 20260506072331 | 10 | 337 | 6.4 | 16.1 | 0.00 | 0.00 | 0.00 | 74 | 1007.5 |
| 20260506071831 | 10 | 347 | 9.7 | 27.4 | 0.00 | 0.00 | 0.00 | 75 | 1007.4 |
| 20260506071332 | 10 | 66 | 11.3 | 29.0 | 0.00 | 0.00 | 0.00 | 76 | 1007.4 |
| 20260506070830 | 10 | 0 | 11.3 | 29.0 | 0.00 | 0.00 | 0.00 | 80 | 1007.5 |
| 20260506070329 | 10 | 27 | 9.7 | 19.3 | 0.00 | 0.00 | 0.00 | 82 | 1007.5 |
| 20260506062316 | 9 | 1 | 9.7 | 20.9 | 0.00 | 0.00 | 0.00 | 87 | 1007.2 |
| 20260506061815 | 9 | 349 | 9.7 | 19.3 | 0.00 | 0.00 | 0.00 | 87 | 1007.1 |
| 20260506061305 | 9 | 6 | 9.7 | 19.3 | 0.00 | 0.00 | 0.00 | 88 | 1007.2 |
| 20260506060803 | 9 | 352 | 9.7 | 17.7 | 0.00 | 0.00 | 0.00 | 88 | 1007.0 |
| 20260506060305 | 9 | 347 | 9.7 | 17.7 | 0.00 | 0.00 | 0.00 | 88 | 1007.1 |
| 20260506051302 | 9 | 355 | 9.7 | 17.7 | 0.00 | 0.00 | 0.00 | 89 | 1006.9 |
| 20260506050259 | 9 | 320 | 8.0 | 14.5 | 0.00 | 0.00 | 0.00 | 89 | 1006.8 |
| 20260506044756 | 9 | 355 | 9.7 | 17.7 | 0.00 | 0.00 | 0.00 | 89 | 1006.8 |
| 20260506044255 | 9 | 340 | 6.4 | 14.5 | 0.00 | 0.00 | 0.00 | 89 | 1006.8 |
| 20260506043752 | 9 | 308 | 4.8 | 11.3 | 0.00 | 0.00 | 0.00 | 89 | 1006.8 |
| 20260506043252 | 9 | 351 | 4.8 | 12.9 | 0.00 | 0.00 | 0.00 | 89 | 1006.8 |
| 20260506042749 | 9 | 320 | 6.4 | 12.9 | 0.00 | 0.00 | 0.00 | 88 | 1006.8 |
| 20260506042247 | 9 | 316 | 6.4 | 12.9 | 0.00 | 0.00 | 0.00 | 88 | 1006.7 |
| 20260506041746 | 9 | 324 | 4.8 | 16.1 | 0.00 | 0.00 | 0.00 | 88 | 1006.7 |
| 20260506041244 | 9 | 339 | 6.4 | 12.9 | 0.00 | 0.00 | 0.00 | 88 | 1006.8 |
| 20260506040739 | 9 | 339 | 4.8 | 11.3 | 0.00 | 0.00 | 0.00 | 88 | 1006.8 |
| 20260506040240 | 9 | 343 | 4.8 | 11.3 | 0.00 | 0.00 | 0.00 | 88 | 1006.8 |
| 20260506035737 | 9 | 336 | 4.8 | 14.5 | 0.00 | 0.00 | 0.00 | 88 | 1006.9 |
| 20260506035236 | 9 | 341 | 8.0 | 14.5 | 0.00 | 0.00 | 0.00 | 88 | 1007.0 |
| 20260506034728 | 9 | 347 | 8.0 | 14.5 | 0.00 | 0.00 | 0.00 | 88 | 1006.9 |
| 20260506034228 | 9 | 322 | 6.4 | 14.5 | 0.00 | 0.00 | 0.00 | 88 | 1007.0 |
| 20260506033724 | 9 | 23 | 4.8 | 14.5 | 0.00 | 0.00 | 0.00 | 88 | 1007.0 |
| 20260506033223 | 9 | 346 | 6.4 | 14.5 | 0.00 | 0.00 | 0.00 | 87 | 1006.9 |
| 20260506032721 | 9 | 334 | 4.8 | 11.3 | 0.00 | 0.00 | 0.00 | 87 | 1007.0 |
| 20260506032220 | 9 | 351 | 4.8 | 14.5 | 0.00 | 0.00 | 0.00 | 87 | 1007.1 |
| 20260506031719 | 9 | 16 | 6.4 | 14.5 | 0.00 | 0.00 | 0.00 | 87 | 1007.1 |
| 20260506031217 | 9 | 349 | 4.8 | 16.1 | 0.00 | 0.00 | 0.00 | 87 | 1007.1 |
| 20260506030716 | 9 | 257 | 6.4 | 16.1 | 0.00 | 0.00 | 0.00 | 87 | 1007.2 |
| 20260506030216 | 9 | 347 | 3.2 | 11.3 | 0.00 | 0.00 | 0.00 | 87 | 1007.2 |
| 20260506025712 | 9 | 12 | 4.8 | 12.9 | 0.00 | 0.00 | 0.00 | 87 | 1007.4 |